TimeCST,TemperatureF,Dew PointF,Humidity,Sea Level PressureIn,VisibilityMPH,Wind Direction,Wind SpeedMPH,Gust SpeedMPH,PrecipitationIn,Events,Conditions,WindDirDegrees,DateUTC
12:15 AM,44.6,42.8,93,30.21,7.0,Calm,Calm,-,N/A,,Clear,0,2012-11-22 06:15:00
12:35 AM,42.8,42.8,100,30.21,7.0,Calm,Calm,-,N/A,,Clear,0,2012-11-22 06:35:00
12:55 AM,42.8,42.8,100,30.21,6.0,Calm,Calm,-,N/A,,Clear,0,2012-11-22 06:55:00
1:15 AM,42.8,42.8,100,30.21,7.0,Calm,Calm,-,N/A,,Clear,0,2012-11-22 07:15:00
1:35 AM,42.8,42.8,100,30.21,5.0,Calm,Calm,-,N/A,,Clear,0,2012-11-22 07:35:00
1:55 AM,42.8,42.8,100,30.21,5.0,Calm,Calm,-,N/A,,Clear,0,2012-11-22 07:55:00
2:15 AM,42.8,42.8,100,30.21,5.0,Calm,Calm,-,N/A,,Clear,0,2012-11-22 08:15:00
2:35 AM,42.8,41.0,93,30.21,9.0,Calm,Calm,-,N/A,,Clear,0,2012-11-22 08:35:00
2:55 AM,42.8,41.0,93,30.21,5.0,Calm,Calm,-,N/A,,Clear,0,2012-11-22 08:55:00
3:15 AM,41.0,39.2,93,30.20,3.0,Calm,Calm,-,N/A,,Clear,0,2012-11-22 09:15:00
3:35 AM,41.0,39.2,93,30.20,5.0,Calm,Calm,-,N/A,,Clear,0,2012-11-22 09:35:00
3:55 AM,41.0,39.2,93,30.20,5.0,Calm,Calm,-,N/A,,Clear,0,2012-11-22 09:55:00
4:15 AM,41.0,39.2,93,30.20,4.0,Calm,Calm,-,N/A,,Clear,0,2012-11-22 10:15:00
4:35 AM,39.2,39.2,100,30.21,8.0,Calm,Calm,-,N/A,,Clear,0,2012-11-22 10:35:00
4:55 AM,39.2,39.2,100,30.21,6.0,Calm,Calm,-,N/A,,Clear,0,2012-11-22 10:55:00
5:15 AM,39.2,39.2,100,30.21,5.0,Calm,Calm,-,N/A,,Clear,0,2012-11-22 11:15:00
5:55 AM,39.2,39.2,100,30.22,5.0,Calm,Calm,-,N/A,,Clear,0,2012-11-22 11:55:00
6:15 AM,39.2,39.2,100,30.23,9.0,Calm,Calm,-,N/A,,Clear,0,2012-11-22 12:15:00
6:35 AM,39.2,39.2,100,30.23,5.0,Calm,Calm,-,N/A,,Clear,0,2012-11-22 12:35:00
6:55 AM,39.2,39.2,100,30.23,5.0,Calm,Calm,-,N/A,,Clear,0,2012-11-22 12:55:00
7:15 AM,41.0,41.0,100,30.24,4.0,Calm,Calm,-,N/A,,Clear,0,2012-11-22 13:15:00
7:35 AM,44.6,44.6,100,30.24,5.0,Calm,Calm,-,N/A,,Clear,0,2012-11-22 13:35:00
7:55 AM,48.2,48.2,100,30.25,3.0,Calm,Calm,-,N/A,,Clear,0,2012-11-22 13:55:00
8:15 AM,51.8,50.0,94,30.25,4.0,Calm,Calm,-,N/A,,Clear,0,2012-11-22 14:15:00
8:35 AM,57.2,51.8,82,30.25,7.0,ESE,3.5,-,N/A,,Clear,120,2012-11-22 14:35:00
8:55 AM,60.8,51.8,72,30.25,7.0,SE,4.6,-,N/A,,Clear,130,2012-11-22 14:55:00
9:15 AM,62.6,51.8,68,30.26,9.0,SE,5.8,-,N/A,,Clear,140,2012-11-22 15:15:00
9:35 AM,62.6,51.8,68,30.27,10.0,SE,5.8,-,N/A,,Clear,130,2012-11-22 15:35:00
9:55 AM,64.4,51.8,64,30.27,9.0,SE,3.5,-,N/A,,Clear,130,2012-11-22 15:55:00
10:15 AM,66.2,51.8,60,30.27,10.0,SSE,3.5,-,N/A,,Clear,150,2012-11-22 16:15:00
10:35 AM,68.0,51.8,56,30.26,10.0,South,4.6,-,N/A,,Clear,170,2012-11-22 16:35:00
10:55 AM,69.8,51.8,53,30.26,10.0,SSW,6.9,-,N/A,,Clear,210,2012-11-22 16:55:00
11:15 AM,69.8,46.4,43,30.25,10.0,South,5.8,-,N/A,,Clear,190,2012-11-22 17:15:00
11:35 AM,69.8,46.4,43,30.25,10.0,SW,5.8,-,N/A,,Clear,230,2012-11-22 17:35:00
11:55 AM,71.6,44.6,38,30.24,10.0,SW,3.5,-,N/A,,Clear,220,2012-11-22 17:55:00
12:15 PM,71.6,44.6,38,30.23,10.0,SW,6.9,-,N/A,,Clear,230,2012-11-22 18:15:00
12:35 PM,71.6,44.6,38,30.22,10.0,SW,9.2,-,N/A,,Clear,220,2012-11-22 18:35:00
12:55 PM,71.6,44.6,38,30.22,10.0,WSW,5.8,-,N/A,,Clear,240,2012-11-22 18:55:00
1:15 PM,71.6,44.6,38,30.21,9.0,West,5.8,-,N/A,,Clear,260,2012-11-22 19:15:00
1:35 PM,73.4,44.6,36,30.20,10.0,West,3.5,-,N/A,,Clear,270,2012-11-22 19:35:00
1:55 PM,73.4,44.6,36,30.19,10.0,WSW,5.8,-,N/A,,Clear,250,2012-11-22 19:55:00
2:15 PM,73.4,44.6,36,30.18,10.0,SSE,4.6,-,N/A,,Clear,160,2012-11-22 20:15:00
2:35 PM,73.4,44.6,36,30.18,10.0,SSW,6.9,-,N/A,,Clear,200,2012-11-22 20:35:00
2:55 PM,73.4,44.6,36,30.18,10.0,SSW,6.9,-,N/A,,Clear,200,2012-11-22 20:55:00
3:15 PM,71.6,44.6,38,30.17,10.0,Calm,Calm,-,N/A,,Clear,0,2012-11-22 21:15:00
3:55 PM,71.6,46.4,41,30.18,10.0,South,4.6,-,N/A,,Clear,180,2012-11-22 21:55:00
4:15 PM,69.8,46.4,43,30.18,10.0,SSW,3.5,-,N/A,,Clear,200,2012-11-22 22:15:00
4:35 PM,66.2,48.2,52,30.17,10.0,Calm,Calm,-,N/A,,Clear,0,2012-11-22 22:35:00
4:55 PM,62.6,51.8,68,30.17,10.0,Calm,Calm,-,N/A,,Clear,0,2012-11-22 22:55:00
5:15 PM,59.0,51.8,77,30.18,10.0,North,-9999.0,-,N/A,,Clear,0,2012-11-22 23:15:00
5:35 PM,57.2,51.8,82,30.18,10.0,Calm,Calm,-,N/A,,Clear,0,2012-11-22 23:35:00
5:55 PM,55.4,51.8,88,30.18,10.0,Calm,Calm,-,N/A,,Clear,0,2012-11-22 23:55:00
6:35 PM,53.6,50.0,88,30.19,10.0,Calm,Calm,-,N/A,,Clear,0,2012-11-23 00:35:00
6:55 PM,53.6,51.8,94,30.20,10.0,Calm,Calm,-,N/A,,Clear,0,2012-11-23 00:55:00
7:15 PM,51.8,50.0,94,30.20,10.0,Calm,Calm,-,N/A,,Clear,0,2012-11-23 01:15:00
7:55 PM,50.0,48.2,94,30.20,10.0,Calm,Calm,-,N/A,,Clear,0,2012-11-23 01:55:00
8:15 PM,50.0,48.2,94,30.21,10.0,Calm,Calm,-,N/A,,Clear,0,2012-11-23 02:15:00
8:35 PM,50.0,48.2,94,30.21,10.0,Calm,Calm,-,N/A,,Clear,0,2012-11-23 02:35:00
8:55 PM,48.2,48.2,100,30.21,9.0,Calm,Calm,-,N/A,,Clear,0,2012-11-23 02:55:00
9:15 PM,48.2,48.2,100,30.21,10.0,Calm,Calm,-,N/A,,Clear,0,2012-11-23 03:15:00
9:35 PM,48.2,48.2,100,30.21,10.0,Calm,Calm,-,N/A,,Clear,0,2012-11-23 03:35:00
9:55 PM,48.2,48.2,100,30.21,9.0,Calm,Calm,-,N/A,,Clear,0,2012-11-23 03:55:00
10:15 PM,48.2,46.4,93,30.21,10.0,Calm,Calm,-,N/A,,Clear,0,2012-11-23 04:15:00
10:35 PM,48.2,46.4,93,30.22,8.0,Calm,Calm,-,N/A,,Clear,0,2012-11-23 04:35:00
10:55 PM,48.2,48.2,100,30.22,10.0,Calm,Calm,-,N/A,,Clear,0,2012-11-23 04:55:00
11:15 PM,48.2,46.4,93,30.22,10.0,South,3.5,-,N/A,,Clear,180,2012-11-23 05:15:00
11:35 PM,46.4,44.6,93,30.22,10.0,Calm,Calm,-,N/A,,Clear,0,2012-11-23 05:35:00
11:55 PM,48.2,46.4,93,30.22,10.0,Calm,Calm,-,N/A,,Clear,0,2012-11-23 05:55:00